Location: Coors Field
(39.7564°N, 104.9943°W)
Time: 09:15:41
(UTC-07:00)

ISS - Visible Passes

Search period start: 04 December 2016 00:00
Search period end: 14 December 2016 00:00
Orbit: 401 x 410 km, 51.6° (Epoch: 04 December)

Date Brightness Start Highest point End Pass type
(mag) Time Alt. Az. Time Alt. Az. Time Alt. Az.
04 Dec -1.5 18:00:45 10° W 18:03:28 23° NNW 18:04:42 19° N visible
05 Dec -2.2 17:08:18 10° W 17:11:22 36° NNW 17:14:28 10° NE visible
05 Dec -0.4 18:47:08 10° NW 18:47:31 11° NNW 18:47:31 11° NNW visible
06 Dec -1.0 17:54:18 10° NW 17:56:21 15° NNW 17:57:38 13° N visible
08 Dec -0.8 17:48:01 10° NNW 17:49:17 12° N 17:50:26 10° NNE visible
10 Dec -0.8 17:41:30 10° NNW 17:42:14 11° N 17:42:58 10° NNE visible
11 Dec -0.6 18:25:44 10° NNW 18:25:58 11° NNW 18:25:58 11° NNW visible
12 Dec -1.0 17:33:56 10° NNW 17:35:08 11° N 17:36:05 10° NNE visible
13 Dec -1.1 18:17:44 10° NNW 18:18:57 16° N 18:18:57 16° N visible
